Voltar ao catálogo

STARLINK-11368

AtivoComunicaçõesVLEO
NORAD 61583·PAYLOAD·🇺🇸 United States

Lançado Oct 18, 2024 de Cape Canaveral Space Force Station

Loading…

Próximas Passagens (próximas 24 horas)

TLE

AtualizadoSource: CelesTrak SupGP

Época: Sep 14, 2026, 22:18 UTC

1 61583C 24187K   26257.92965278  .00033595  00000+0  27672-3 0  2573
2 61583  53.1568  83.6161 0001151  76.6205 124.4654 15.69693857    18

Acompanhe STARLINK-11368 em tempo real com AllMySat

Download on the App Store